Погода в Ла-Плата

Аргентина     34°55′15″S   57°57′15″W
темп.,
°C
ветер,
м/с
пор.,
м/с
влажн.,
%
обл.,
%
осадки,
мм/ч
давл.,
гПа
погр.,
м
12 апреля, пн
пн1200:00+13зюз25840 0.0 1018122
03:00+13зюз24850 0.0 101894
06:00+12зюз24860 0.0 101990
09:00+15з23750 0.0 1020160
12:00+21з34530 0.0 1020785
15:00+22зсз34470 0.0 10191142
18:00+19зсз22670 0.0 101931
21:00+16сз22740 0.0 102020
13 апреля, вт
вт1300:00+15сз22770 0.0 102132
03:00+14зсз22810 0.0 102133
06:00+13з22820 0.0 102125
09:00+16зсз12710 0.0 1022137
12:00+21сз22530 0.0 1022759
15:00+23ссз22470 0.0 10201033
18:00+19с23650 0.0 102068
21:00+16св22720 0.0 102127
14 апреля, ср
ср1400:00+16св22840 0.0 102027
03:00+15св22920 0.0 101933
06:00+15св23920 0.0 101970
09:00+18св37800 0.0 1019431
12:00+21ссв46540 0.0 1019848
15:00+22ссв45580 0.0 1016961
18:00+19всв36740 0.0 1016325
21:00+17всв26870 0.0 1016132
15 апреля, чт
чт1500:00+17всв24930 0.0 101676
03:00+16св22950 0.0 101643
06:00+16ссв11950 0.0 101513
09:00+18в01830 0.0 1016145
12:00+24в11600 0.0 1016754
15:00+25всв11510 0.0 10131302
18:00+21св23730 0.0 1014121
21:00+18в12820 0.0 101531
16 апреля, пт
пт1600:00+17в22840 0.0 101534
03:00+16вюв11880 0.0 101514
06:00+16ююв22920 0.0 101537
09:00+18юв23790 0.0 1018169
12:00+23в23580 0.0 1017866
15:00+25всв33520 0.0 10161266
18:00+21всв35720 0.0 1016223
21:00+17вюв26861 0.0 1018147